Wind_Speed
10 7 6 5 5 5 5 5 4 4 4 5 5 6 6 5 3 4 2 2 2 3 3 4 5 4 4 7 6 13 14 14 14 15 14 10 6 8 10 10 7 10 10 9 9
13 10 8 6 6 6 6 6 7 7 7 6 6 7 7 7 8 8 6 3 3 3 4 5 7 6 4 5 6 6 9 2 7 11 4 6 5 8 5 9 9 10 11 10 9
15 13 10 9 8 8 7 7 7 8 9 9 9 8 8 9 10 8 9 7 5 5 7 8 7 6 3 5 8 8 11 14 5 18 2 5 2 10 10 4 11 12 9 7 6
18 16 13 12 11 9 9 8 8 8 10 11 11 12 11 11 9 9 10 9 8 9 10 9 6 8 9 3 3 5 8 11 13 6 2 5 9 4 7 5 8 12 11 10 14
19 18 16 15 14 14 13 13 12 11 11 11 12 13 14 12 14 13 13 10 12 12 11 10 13 13 9 8 1 3 3 9 11 5 10 2 1 11 8 7 11 9 9 8 10
20 20 19 18 17 17 17 16 15 15 14 14 14 14 13 11 19 14 11 11 14 14 15 14 14 9 5 5 4 2 1 4 5 3 4 7 11 7 3 8 8 8 9 6 6
20 21 21 20 19 18 18 18 18 17 16 15 14 14 12 15 18 15 13 14 16 15 14 12 11 11 7 5 3 4 4 4 5 10 1 3 6 14 14 11 13 8 6 5 8
20 21 21 20 19 19 20 20 20 19 17 15 13 13 12 11 12 14 14 14 16 16 16 11 12 11 7 3 3 2 5 7 7 8 10 12 9 17 11 7 10 10 6 3 9
20 22 22 20 20 19 19 20 19 18 18 16 11 10 10 10 12 12 14 14 15 18 16 15 15 12 6 6 4 6 4 7 12 12 9 8 12 15 15 3 9 10 10 5 9
20 23 22 21 20 19 18 18 18 17 17 15 11 10 10 11 12 14 15 17 19 19 18 17 16 11 9 10 10 1 7 8 8 13 18 11 9 10 10 10 5 11 14 3 10
20 23 24 22 20 19 18 17 17 17 17 14 11 9 8 9 10 12 14 16 18 19 20 20 17 10 11 13 15 14 0 1 5 6 5 8 5 7 9 8 9 12 10 9 4
18 22 24 23 20 19 17 16 15 14 16 13 8 6 6 6 7 8 10 11 12 17 19 14 11 14 14 12 12 9 5 3 3 3 7 6 4 4 5 6 3 12 7 9 4
18 22 26 25 21 22 18 15 14 12 14 8 5 3 2 2 3 5 8 9 10 10 12 14 17 20 16 11 14 9 10 10 7 3 7 5 2 3 5 7 7 5 5 8 5
18 21 25 27 23 26 17 14 11 12 7 1 5 3 2 4 2 5 4 5 6 9 12 15 15 19 21 16 14 6 13 14 16 3 1 4 6 6 4 2 5 6 5 3 10
18 20 24 28 24 21 15 11 10 9 4 4 4 2 2 5 5 3 2 1 1 4 6 12 13 14 12 20 17 14 12 12 16 13 12 9 10 10 7 6 5 3 6 9 8
18 19 22 27 24 18 10 8 10 8 7 2 5 6 5 1 1 5 5 2 1 2 2 7 8 8 5 6 17 20 16 22 18 19 17 20 22 15 15 14 10 11 11 9 6
19 20 20 24 22 14 9 7 7 5 8 4 4 4 4 2 6 9 5 5 2 3 3 9 8 4 1 5 10 18 27 23 21 20 12 12 16 14 14 17 16 20 16 13 14
20 19 20 20 20 12 9 10 7 9 10 3 7 6 7 7 5 7 1 3 6 5 9 12 3 5 5 7 8 12 26 26 26 20 18 20 22 19 17 15 8 21 18 12 16
22 20 19 17 16 11 10 10 9 11 8 1 3 8 3 4 4 7 6 6 7 5 4 5 5 12 9 1 2 11 15 16 19 20 22 24 21 19 16 18 20 6 17 17 18
23 21 19 17 11 10 10 11 10 10 8 8 9 8 7 6 6 9 9 8 11 13 6 7 9 13 9 3 3 4 11 19 19 21 24 26 21 22 20 19 18 18 12 22 27
26 24 22 18 13 9 11 11 12 10 12 7 10 11 13 14 12 13 12 14 15 19 14 12 12 13 13 11 10 9 20 24 22 25 26 26 23 20 18 22 19 21 20 27 21
29 26 25 21 18 12 15 15 16 16 14 7 9 11 16 18 19 20 21 19 17 15 16 15 14 21 18 22 17 16 20 26 24 25 24 27 27 23 20 17 21 15 16 19 17
32 30 29 24 23 20 19 19 19 18 18 13 8 9 11 15 19 19 22 19 21 20 18 19 18 17 23 28 29 23 24 26 28 31 27 28 29 26 15 12 19 17 21 21 19
36 36 33 26 29 28 24 19 16 19 24 13 12 8 11 10 13 20 24 24 23 26 21 20 21 22 24 32 33 31 29 29 30 34 33 33 33 31 21 23 23 16 25 22 18
40 41 33 29 30 25 22 21 22 21 20 18 16 10 15 15 16 18 22 21 19 19 17 17 18 19 25 28 33 33 32 29 30 30 33 33 34 31 25 21 25 23 19 18 15
43 41 35 32 29 24 24 24 29 24 23 20 16 13 15 14 16 22 20 19 22 24 27 29 27 25 24 26 28 31 34 29 27 27 31 35 40 33 27 18 17 22 26 24 21
44 44 41 36 35 31 31 31 26 30 27 21 21 17 19 19 15 15 16 15 12 17 21 29 31 28 22 25 24 26 30 27 29 31 26 25 31 27 28 22 17 25 29 28 24
Wind_Direction
19 12 8 6 360 355 347 337 324 313 301 291 275 271 260 256 251 253 280 219 217 227 247 282 277 257 249 293 332 320 339 183 186 161 215 289 320 52 45 50 25 36 51 68 60
21 14 9 358 346 336 325 312 304 296 293 286 274 272 268 256 247 245 250 244 250 217 235 239 244 239 215 276 296 294 320 348 207 228 210 305 312 64 33 32 25 27 48 74 98
27 19 14 6 358 354 341 330 315 299 291 280 274 269 266 253 249 263 251 244 234 226 222 235 245 257 222 244 293 313 330 322 337 180 336 311 3 7 36 55 3 24 43 63 95
26 23 18 14 8 359 349 342 326 309 294 285 275 266 258 258 249 243 245 233 228 225 226 231 252 246 220 188 3 315 340 10 10 230 87 113 164 250 342 352 38 20 32 43 124
20 19 16 12 11 4 357 351 343 329 313 298 283 271 261 258 252 242 241 241 225 229 228 219 230 242 245 195 163 323 321 28 38 359 284 312 118 1 354 349 36 31 22 60 102
16 14 10 5 2 358 353 346 339 331 320 307 294 280 265 239 247 241 234 232 230 224 228 230 245 275 303 223 211 11 15 9 8 3 313 175 236 308 355 1 14 13 42 73 87
9 8 4 356 353 350 347 343 337 329 320 306 295 279 262 239 249 239 231 224 229 233 237 237 262 274 271 213 258 330 29 53 37 28 341 177 328 344 321 348 336 358 31 91 97
3 3 358 352 347 345 344 343 339 333 325 311 288 273 265 251 243 228 214 216 222 227 236 233 234 239 250 246 312 74 42 21 16 9 346 19 11 340 292 319 324 329 341 72 115
0 359 354 347 342 340 342 342 341 341 333 322 302 280 260 243 234 225 214 216 223 227 230 225 239 242 210 165 143 137 65 30 343 336 341 7 17 12 26 321 301 305 308 306 147
358 357 352 344 338 335 337 340 338 335 331 323 302 282 260 244 230 225 220 223 226 229 229 230 236 243 223 191 200 149 51 54 55 70 74 38 13 352 6 29 10 303 304 216 163
352 354 351 342 335 332 329 332 332 329 331 323 314 282 264 234 228 227 221 224 229 230 233 232 234 232 226 225 216 227 319 30 84 255 309 322 4 20 4 14 5 330 279 283 148
342 349 349 342 337 329 323 322 329 327 327 319 313 298 256 219 213 204 206 202 220 226 227 227 212 224 219 225 230 220 236 208 208 271 308 343 293 317 24 25 43 8 277 256 257
328 342 347 345 342 339 320 316 323 325 319 315 299 268 251 175 206 208 210 209 202 216 219 212 207 209 200 207 244 219 220 263 271 275 283 260 68 88 55 36 13 359 220 246 233
318 331 342 344 339 338 321 316 318 326 308 275 260 234 144 100 206 207 181 188 205 242 219 206 216 213 206 196 233 222 244 252 272 224 322 231 211 195 158 61 23 65 146 276 257
309 322 335 342 340 335 324 323 326 320 5 309 274 345 60 66 163 115 60 262 199 277 265 225 210 222 237 206 220 241 247 247 252 235 217 254 197 208 200 206 273 254 254 247 257
300 311 325 339 342 335 326 327 314 325 324 343 28 7 9 47 63 64 36 23 182 289 228 124 154 130 202 235 236 233 216 235 242 249 251 259 259 211 224 234 232 223 223 239 258
290 303 315 334 343 338 324 308 314 311 323 12 17 356 339 16 85 52 15 317 228 96 140 179 160 155 154 253 223 213 222 229 257 273 262 262 268 248 242 232 250 254 224 208 218
280 291 306 329 342 333 315 294 274 299 325 23 6 354 350 353 44 44 133 279 275 239 208 223 171 273 237 292 258 223 224 233 244 240 234 247 266 261 270 258 255 245 242 228 222
273 280 295 312 338 328 302 279 260 280 307 356 287 260 282 336 307 317 322 281 254 283 277 259 247 264 258 338 328 240 236 221 231 215 236 254 266 278 278 268 257 249 232 237 242
267 270 277 291 316 315 292 278 275 278 266 227 260 271 277 259 261 268 279 296 289 279 265 278 242 271 284 257 289 294 222 226 240 239 238 253 271 283 283 277 273 257 250 241 248
264 264 264 273 277 291 272 265 254 264 254 247 258 267 259 249 257 251 270 276 272 265 289 269 286 230 237 234 232 217 213 225 237 250 256 261 258 262 273 274 284 258 276 232 237
262 256 258 258 262 256 262 264 262 259 263 229 246 245 247 257 256 256 258 265 268 261 278 273 285 219 217 246 248 227 224 225 235 251 258 264 270 274 285 294 281 255 230 230 241
257 254 251 251 253 243 245 250 258 269 270 258 266 278 291 280 259 258 267 261 263 275 268 272 278 247 226 241 249 247 244 246 250 252 253 259 267 268 273 292 250 253 229 225 210
251 250 245 243 247 248 252 256 245 260 261 256 270 279 305 243 252 247 255 254 259 260 258 276 265 262 241 225 239 246 248 249 256 263 269 263 269 276 284 280 237 294 232 234 218
247 247 245 243 248 255 260 260 243 247 244 246 249 265 283 267 243 227 237 253 264 273 263 260 270 279 262 245 240 246 254 260 263 271 266 271 270 267 286 281 258 272 257 249 221
245 245 238 237 241 235 242 224 230 222 236 249 253 242 267 259 234 244 244 260 270 276 287 293 286 287 283 260 251 247 258 265 262 268 272 265 267 263 271 286 268 252 254 278 276
243 241 240 230 234 230 234 229 235 235 236 242 253 245 246 253 249 261 258 266 271 288 292 293 285 288 277 266 265 265 264 265 274 282 283 272 263 266 273 289 264 254 251 263 273
Height
5902 5900 5899 5898 5897 5896 5896 5895 5894 5894 5893 5893 5893 5893 5893 5894 5894 5893 5893 5894 5893 5892 5892 5891 5889 5891 5892 5891 5890 5886 5885 5884 5884 5886 5888 5887 5888 5888 5887 5886 5886 5884 5885 5885 5884
5902 5900 5898 5897 5896 5895 5894 5894 5893 5892 5892 5892 5891 5891 5891 5891 5891 5891 5892 5892 5892 5891 5891 5890 5888 5888 5890 5891 5891 5889 5887 5884 5886 5887 5886 5887 5887 5887 5887 5888 5888 5886 5885 5885 5885
5902 5900 5898 5896 5895 5894 5893 5892 5891 5890 5890 5889 5889 5889 5889 5889 5889 5890 5890 5891 5891 5890 5889 5888 5888 5888 5889 5892 5890 5889 5888 5884 5880 5884 5887 5887 5885 5885 5887 5888 5889 5885 5884 5885 5886
5903 5900 5898 5896 5894 5893 5891 5890 5889 5888 5887 5887 5887 5886 5886 5886 5888 5887 5887 5888 5889 5888 5887 5888 5888 5887 5888 5890 5889 5889 5887 5887 5886 5884 5886 5886 5887 5888 5889 5888 5888 5884 5883 5886 5888
5903 5900 5898 5895 5894 5892 5890 5888 5887 5885 5884 5884 5883 5883 5883 5884 5883 5883 5884 5886 5886 5885 5885 5886 5885 5884 5885 5888 5888 5887 5887 5885 5887 5888 5889 5887 5886 5886 5886 5888 5888 5887 5884 5886 5889
5902 5900 5897 5894 5892 5890 5888 5886 5885 5883 5881 5880 5879 5879 5879 5880 5877 5880 5881 5882 5882 5882 5882 5883 5883 5884 5886 5886 5888 5888 5888 5887 5887 5887 5888 5884 5888 5889 5887 5888 5890 5891 5887 5888 5889
5901 5899 5896 5893 5891 5889 5886 5884 5882 5880 5878 5876 5875 5875 5875 5875 5874 5876 5878 5879 5879 5880 5880 5882 5883 5884 5885 5886 5886 5887 5888 5889 5889 5889 5889 5887 5887 5887 5887 5885 5884 5889 5889 5889 5889
5900 5897 5894 5892 5890 5887 5884 5881 5879 5876 5874 5872 5871 5871 5871 5871 5871 5872 5874 5875 5876 5877 5878 5881 5880 5881 5885 5885 5885 5885 5887 5888 5890 5891 5890 5892 5891 5890 5888 5887 5885 5885 5890 5891 5892
5899 5896 5893 5890 5888 5885 5882 5879 5876 5874 5871 5869 5868 5868 5868 5868 5869 5870 5871 5873 5873 5874 5875 5878 5877 5880 5885 5885 5886 5886 5889 5888 5889 5889 5890 5892 5892 5892 5890 5889 5889 5886 5889 5894 5894
5898 5894 5891 5888 5885 5882 5879 5877 5874 5872 5869 5867 5866 5866 5865 5865 5865 5866 5868 5870 5870 5872 5874 5875 5876 5878 5882 5882 5883 5885 5887 5889 5891 5891 5890 5891 5893 5892 5891 5890 5889 5889 5887 5894 5895
5896 5892 5889 5886 5883 5880 5877 5875 5873 5871 5867 5866 5864 5862 5861 5861 5862 5863 5864 5866 5867 5870 5871 5872 5875 5878 5878 5880 5881 5883 5887 5888 5889 5890 5890 5892 5894 5892 5890 5888 5890 5889 5887 5889 5897
5893 5890 5887 5883 5880 5877 5875 5872 5870 5869 5866 5864 5862 5861 5861 5859 5860 5861 5862 5863 5865 5866 5867 5873 5874 5875 5875 5878 5881 5881 5883 5884 5888 5888 5889 5890 5891 5892 5891 5890 5889 5889 5887 5887 5892
5891 5888 5884 5881 5877 5874 5871 5869 5868 5866 5864 5863 5860 5860 5860 5859 5859 5860 5861 5861 5862 5864 5867 5868 5870 5870 5872 5873 5874 5878 5880 5880 5886 5885 5887 5888 5889 5890 5890 5889 5890 5888 5887 5888 5890
5888 5885 5881 5878 5875 5871 5868 5867 5866 5865 5863 5862 5861 5860 5859 5859 5859 5859 5859 5861 5861 5863 5864 5865 5867 5869 5870 5871 5870 5874 5875 5877 5880 5884 5885 5886 5888 5888 5887 5887 5887 5887 5887 5888 5888
5885 5882 5878 5874 5872 5867 5866 5865 5864 5863 5863 5863 5860 5858 5858 5859 5859 5857 5857 5859 5860 5862 5865 5865 5865 5867 5870 5870 5870 5871 5873 5876 5876 5880 5881 5881 5883 5884 5883 5883 5884 5883 5886 5886 5885
5881 5879 5875 5872 5868 5865 5863 5862 5862 5862 5860 5860 5858 5857 5857 5858 5857 5856 5857 5858 5859 5860 5862 5864 5864 5866 5868 5869 5870 5869 5873 5872 5872 5874 5877 5875 5876 5880 5879 5879 5880 5878 5880 5881 5882
5877 5875 5873 5869 5866 5862 5861 5861 5861 5859 5859 5859 5858 5857 5857 5857 5857 5856 5857 5858 5858 5859 5861 5861 5862 5863 5863 5865 5865 5867 5868 5869 5869 5868 5871 5872 5872 5873 5874 5875 5876 5878 5877 5876 5878
5872 5871 5869 5866 5863 5861 5860 5860 5858 5858 5856 5855 5856 5855 5854 5855 5855 5857 5858 5858 5858 5858 5858 5858 5861 5861 5860 5861 5861 5863 5864 5866 5866 5867 5868 5869 5866 5868 5870 5872 5871 5874 5874 5875 5875
5866 5866 5865 5863 5860 5859 5858 5857 5856 5856 5855 5855 5856 5856 5855 5855 5855 5854 5855 5856 5856 5857 5857 5856 5858 5858 5858 5858 5859 5859 5861 5863 5861 5863 5863 5863 5865 5865 5865 5865 5865 5867 5869 5870 5873
5860 5860 5859 5859 5857 5856 5855 5854 5853 5855 5854 5852 5853 5854 5853 5853 5854 5852 5852 5854 5853 5852 5854 5855 5857 5856 5855 5856 5856 5856 5859 5859 5859 5859 5859 5859 5860 5858 5860 5861 5861 5861 5862 5864 5866
5853 5853 5853 5853 5853 5852 5851 5851 5850 5851 5851 5851 5850 5851 5851 5849 5849 5849 5850 5851 5851 5851 5852 5853 5855 5856 5854 5849 5851 5852 5852 5854 5856 5855 5854 5854 5856 5856 5856 5856 5857 5858 5855 5858 5858
5845 5845 5845 5847 5848 5847 5846 5846 5845 5845 5847 5845 5847 5847 5847 5847 5846 5845 5845 5846 5845 5847 5848 5849 5850 5851 5853 5847 5848 5848 5849 5850 5850 5850 5850 5850 5851 5852 5854 5854 5853 5854 5853 5856 5856
5835 5836 5835 5840 5841 5840 5839 5840 5839 5840 5840 5840 5841 5843 5843 5843 5843 5842 5841 5843 5842 5842 5844 5844 5843 5844 5849 5845 5843 5844 5844 5845 5845 5844 5846 5846 5845 5845 5850 5850 5850 5849 5849 5852 5854
5824 5823 5827 5831 5832 5831 5832 5833 5834 5835 5835 5833 5836 5837 5837 5838 5838 5839 5837 5837 5838 5838 5838 5838 5838 5837 5840 5840 5838 5838 5839 5841 5841 5840 5840 5840 5840 5841 5846 5846 5847 5846 5845 5847 5845
5811 5810 5819 5822 5823 5826 5827 5828 5828 5828 5829 5828 5829 5832 5832 5832 5832 5833 5833 5832 5833 5832 5833 5834 5833 5833 5833 5834 5834 5834 5835 5836 5836 5834 5835 5835 5833 5836 5842 5841 5841 5841 5842 5842 5843
5798 5801 5808 5811 5812 5817 5819 5820 5819 5821 5819 5823 5824 5826 5827 5827 5828 5828 5830 5830 5829 5829 5829 5827 5827 5827 5826 5827 5827 5829 5829 5829 5829 5827 5827 5826 5826 5831 5835 5836 5835 5835 5835 5837 5837
5785 5789 5794 5799 5801 5806 5807 5807 5812 5811 5814 5816 5818 5819 5821 5822 5823 5825 5826 5828 5828 5826 5825 5822 5820 5819 5819 5819 5821 5823 5821 5821 5822 5820 5820 5819 5821 5825 5827 5828 5829 5829 5829 5831 5834